Torna al catalogo

COSMOS 2297

AttivoMilitareLEO
NORAD 23404·PAYLOAD·🇷🇺 Russia

Lanciato Nov 24, 1994 da Baikonur Cosmodrome

Loading…

Prossimi Passaggi (prossime 24 ore)

TLE

AggiornatoSource: Space-Track

Epoca: Sep 13, 2026, 22:07 UTC

1 23404U 94077A   26256.92180667  .00000161  00000-0  10990-3 0  9990
2 23404  71.0143  64.8186 0013817  55.7578 304.4850 14.13953836641098

Traccia COSMOS 2297 in tempo reale con AllMySat

Download on the App Store